This demonstration page uses our WeatherBlox Daily Observations layout. Learn more.

Left ArrowRight Arrow

30.21309, -93.2044

Hourly Observations for June 5, 2019

Temp ( °F °C ) Dew Point ( °F °C ) Humidity (%) Winds ( mph kmh ) Pressure ( in mb ) Visibility ( mi km ) Precip ( " mm )
12:15 am 00:15 Clear 78 25.3 76 24.2 94 94 SSW 3 6 29.96 1015 10 16 0.00 0.00
12:35 am 00:35 Clear 77 25.2 75 24 93 93 Calm 29.95 1014 10 16 0.00 0.00
12:55 am 00:55 Partly Cloudy 77 24.8 76 24.2 96 96 Calm 29.95 1014 10 16 0.00 0.00
1:15 am 01:15 Partly Cloudy 76 24.7 76 24.2 97 97 ESE 3 6 29.95 1014 10 16 0.00 0.00
1:35 am 01:35 Partly Cloudy 76 24.6 75 24 96 96 E 3 6 29.94 1014 10 16 0.00 0.00
1:55 am 01:55 Partly Cloudy 77 24.8 75 24.1 96 96 NE 5 7 29.93 1014 10 16 0.00 0.00
2:15 am 02:15 Mostly Cloudy 77 24.8 75 24 95 95 Calm 29.92 1013 10 16 0.00 0.00
2:35 am 02:35 Cloudy 77 25 75 24.1 95 95 Calm 29.92 1013 10 16 0.00 0.00
2:55 am 02:55 Cloudy 77 25 76 24.2 95 95 Calm 29.92 1013 10 16 0.00 0.00
3:15 am 03:15 Cloudy 77 24.9 76 24.2 96 96 NE 5 7 29.92 1013 5 8 0.01 0.25
3:35 am 03:35 Cloudy 77 24.8 76 24.2 96 96 NE 6 9 29.92 1013 10 16 0.01 0.25
3:55 am 03:55 Cloudy 76 24.6 75 24.1 97 97 NE 3 6 29.92 1013 10 16 0.02 0.51
4:15 am 04:15 Cloudy 76 24.6 76 24.2 98 98 ENE 5 7 29.92 1013 10 16 0.00 0.00
4:35 am 04:35 Cloudy 76 24.7 76 24.2 97 97 NE 3 6 29.92 1013 10 16 0.00 0.00
4:55 am 04:55 Cloudy 76 24.7 76 24.3 98 98 NE 3 6 29.92 1013 10 16 0.00 0.00
5:15 am 05:15 Cloudy 76 24.7 76 24.3 98 98 NNE 3 6 29.92 1013 10 16 0.00 0.00
5:35 am 05:35 Cloudy 76 24.7 76 24.2 97 97 NE 6 9 29.92 1013 10 16 0.00 0.00
6:00 am 06:00 Cloudy 77 25 75 24 94 94 ENE 6 9 29.91 1013 10 16 0.00 0.00
6:55 am 06:55 Mostly Cloudy with Light Rain 77 25 75 24 94 94 Calm 29.93 1014 6 10 0.00 0.00
7:55 am 07:55 Mostly Cloudy with Light Rain 75 24 75 24 100 100 ENE 8 13 29.92 1013 6 10 0.00 0.00
8:53 am 08:53 Cloudy with Rain 75 24 75 24 100 100 S 6 9 29.94 1014 2 3 0.00 0.00
9:50 am 09:50 Cloudy with Light Rain 75 24 73 23 94 94 ENE 6 9 29.94 1014 7 11 0.00 0.00
10:55 am 10:55 Cloudy with Light Rain 73 23 73 23 100 100 Calm 29.96 1015 5 8 0.00 0.00
11:55 am 11:55 Cloudy with Light Rain 73 23 72 22 94 94 ESE 16 26 29.95 1014 5 8 0.00 0.00
12:50 pm 12:50 Cloudy with Light Rain 72 22 68 20 88 88 ENE 3 6 29.94 1014 5 8 0.00 0.00
1:50 pm 13:50 Cloudy with Light Rain 72 22 70 21 94 94 ENE 6 9 29.93 1014 5 8 0.00 0.00
2:50 pm 14:50 Cloudy with Light Rain 72 22 70 21 94 94 E 9 15 29.91 1013 5 8 0.00 0.00
3:45 pm 15:45 Cloudy with Light Rain 72 22 72 22 100 100 ESE 10 17 29.90 1013 5 8 0.00 0.00
4:50 pm 16:50 Cloudy with Light Rain 72 22 70 21 94 94 E 7 11 29.88 1012 5 8 0.00 0.00
5:50 pm 17:50 Cloudy with Light Rain 72 22 70 21 94 94 ESE 8 13 29.83 1010 5 8 0.00 0.00
6:55 pm 18:55 Cloudy with Light Rain 72 22 70 21 94 94 ESE 8 13 29.83 1010 5 8 0.00 0.00
9:45 pm 21:45 Cloudy with Light Rain 73 23 73 23 100 100 ESE 10 17 29.77 1008 10 16 0.00 0.00
10:15 pm 22:15 Cloudy with Nearby Thunderstorms 74 23.3 73 23 98 98 ESE 22 35 29.76 1008 10 16 0.00 0.00
10:35 pm 22:35 Cloudy with Nearby Thunderstorms 74 23.3 73 22.9 98 98 SE 24 39 29.76 1008 7 11 0.00 0.00
10:55 pm 22:55 Cloudy with Thunderstorms 74 23.5 73 23 97 97 ESE 25 41 29.76 1008 10 16 0.00 0.00
11:15 pm 23:15 Cloudy with Thunderstorms 74 23.5 74 23.2 98 98 ESE 26 43 29.75 1007 2 3 0.00 0.00
11:35 pm 23:35 Cloudy with Thunderstorms 74 23.5 74 23.2 98 98 ESE 26 43 29.74 1007 10 16 0.00 0.00
11:55 pm 23:55 Cloudy with Thunderstorms 74 23.1 73 22.8 98 98 ESE 28 44 29.73 1007 2 3 0.01 0.25

Powered by AerisWeather